Location: Battersea Observatory
(44.4318°N, 76.3841°W)
Time: 22:23:56
(UTC-05:00)

Transit 4A - Visible Passes

Search period start: 22 January 2022 00:00
Search period end: 01 February 2022 00:00
Orbit: 863 x 981 km, 66.8° (Epoch: 22 January)

Date Brightness Start Highest point End Pass type
(mag) Time Alt. Az. Time Alt. Az. Time Alt. Az.
22 Jan 10.9 06:39:31 10° SSE 06:43:33 19° ESE 06:47:40 10° ENE visible
22 Jan 9.0 17:24:25 10° NW 17:30:37 54° WSW 17:36:48 10° S visible
23 Jan 10.3 06:47:34 10° SSE 06:52:32 28° ESE 06:57:40 10° NE visible
23 Jan 9.8 17:33:58 10° NW 17:39:46 37° WSW 17:45:32 10° S visible
24 Jan 9.5 06:56:03 10° S 07:01:36 41° ESE 07:07:21 10° NE visible
24 Jan 10.6 17:43:43 10° NW 17:48:49 26° WSW 17:53:55 10° SSW visible
25 Jan 11.1 17:53:50 10° WNW 17:57:48 17° WSW 18:01:47 10° SW visible
26 Jan 11.0 05:31:35 10° SE 05:34:37 14° E 05:37:42 10° ENE visible
26 Jan 11.6 18:05:11 10° W 18:06:44 11° W 18:08:16 10° WSW visible
27 Jan 10.4 05:39:07 10° SSE 05:43:34 22° ESE 05:48:07 10° ENE visible
28 Jan 9.8 05:47:21 10° S 05:52:35 32° ESE 05:57:58 10° NE visible
29 Jan 9.0 05:55:58 10° S 06:01:40 47° ESE 06:07:36 10° NE visible
30 Jan 11.0 04:24:46 10° ESE 04:25:43 10° E 04:26:40 10° E visible
30 Jan 8.3 06:04:53 10° SSW 06:10:51 69° ESE 06:17:03 10° NE visible
31 Jan 10.5 04:30:57 10° SE 04:34:37 17° ESE 04:38:21 10° ENE visible
31 Jan 7.9 06:14:03 10° SSW 06:20:07 85° NW 06:26:25 10° NNE visible
